Simultaneous Nadir Overpasses (SNOs) Predictions

Prediction of SNOs between GOES-16 and NOAA-20 Satellite Orbit:

Table of predicted SNOs for the next 14.0 days since TLE Epoch: 6/29/2020
Index Date Time (GOES-16) GOES-16 Lat,Lon NOAA-20 Lat,Lon Distance(km) Time Diff (sec)
1 06/29/2020 18:16:58 -0.02, -75.20 0.52, -72.76 277.43 80
2 07/01/2020 06:38:45 0.01, -75.20 0.65, -78.03 322.76 80
3 07/02/2020 06:17:21 -0.01, -75.20 -0.40, -73.51 193.61 80
4 07/03/2020 18:39:16 0.02, -75.21 -0.80, -78.81 410.25 80
5 07/04/2020 18:23:12 0.02, -75.22 0.24, -74.28 107.01 80
6 07/06/2020 06:44:59 -0.02, -75.23 0.93, -79.55 491.81 80
7 07/07/2020 06:23:33 -0.02, -75.24 -0.06, -75.02 25.79 80
8 07/09/2020 18:26:44 0.01, -75.28 -0.08, -75.79 58.24 80
9 07/10/2020 18:10:39 -0.00, -75.29 0.91, -71.25 460.47 80
10 07/12/2020 06:32:26 0.00, -75.33 0.27, -76.52 136.36 80
